Volver al catálogo

ARIANE 5 DEB

SYLDA

ActivoHEO
NORAD 41947·DEBRIS·🇫🇷 France

Lanzado Feb 14, 2017 desde Guiana Space Centre

Loading…

Próximos Pases (próximas 24 horas)

TLE

ActualizadoSource: Space-Track

Época: Sep 14, 2026, 09:21 UTC

1 41947U 17007D   26257.38992940  .00229255  00000-0  45283-2 0  9995
2 41947   3.9492 294.7135 4207363 152.0635 238.8845  7.14770536119360

Sigue ARIANE 5 DEB en tiempo real con AllMySat

Download on the App Store